TimeCST,TemperatureF,Dew PointF,Humidity,Sea Level PressureIn,VisibilityMPH,Wind Direction,Wind SpeedMPH,Gust SpeedMPH,PrecipitationIn,Events,Conditions,WindDirDegrees,DateUTC
12:53 AM,44.1,33.1,65,30.35,8.0,Calm,Calm,-,N/A,,Clear,0,2012-11-17 06:53:00
1:53 AM,42.1,33.1,70,30.35,10.0,Calm,Calm,-,N/A,,Clear,0,2012-11-17 07:53:00
2:53 AM,39.9,33.1,77,30.35,10.0,Calm,Calm,-,N/A,,Clear,0,2012-11-17 08:53:00
3:53 AM,39.9,32.0,73,30.36,10.0,Calm,Calm,-,N/A,,Clear,0,2012-11-17 09:53:00
4:53 AM,39.0,32.0,76,30.36,10.0,East,3.5,-,N/A,,Clear,90,2012-11-17 10:53:00
5:53 AM,37.4,32.0,81,30.38,10.0,East,3.5,-,N/A,,Clear,80,2012-11-17 11:53:00
6:53 AM,39.0,30.9,73,30.38,10.0,East,3.5,-,N/A,,Partly Cloudy,80,2012-11-17 12:53:00
7:53 AM,42.1,33.1,70,30.39,10.0,East,4.6,-,N/A,,Scattered Clouds,90,2012-11-17 13:53:00
8:53 AM,48.9,32.0,52,30.42,10.0,ESE,6.9,-,N/A,,Scattered Clouds,120,2012-11-17 14:53:00
9:53 AM,54.0,30.0,40,30.43,10.0,South,10.4,-,N/A,,Scattered Clouds,170,2012-11-17 15:53:00
10:53 AM,57.0,28.9,34,30.42,10.0,SSE,10.4,-,N/A,,Scattered Clouds,160,2012-11-17 16:53:00
11:53 AM,60.1,30.0,32,30.38,10.0,South,5.8,-,N/A,,Mostly Cloudy,170,2012-11-17 17:53:00
12:53 PM,60.1,30.0,32,30.36,10.0,South,3.5,-,N/A,,Scattered Clouds,180,2012-11-17 18:53:00
1:53 PM,63.0,30.0,29,30.33,10.0,Calm,Calm,-,N/A,,Partly Cloudy,0,2012-11-17 19:53:00
2:53 PM,64.0,28.0,26,30.31,10.0,SSE,8.1,-,N/A,,Partly Cloudy,150,2012-11-17 20:53:00
3:53 PM,64.0,27.0,25,30.30,10.0,ESE,6.9,-,N/A,,Scattered Clouds,120,2012-11-17 21:53:00
4:53 PM,62.1,28.0,28,30.30,10.0,SE,6.9,-,N/A,,Scattered Clouds,130,2012-11-17 22:53:00
5:53 PM,57.0,28.9,34,30.29,10.0,ESE,4.6,-,N/A,,Partly Cloudy,120,2012-11-17 23:53:00
6:53 PM,54.0,30.0,40,30.30,10.0,SE,5.8,-,N/A,,Clear,130,2012-11-18 00:53:00
7:53 PM,55.0,28.9,37,30.29,10.0,ESE,5.8,-,N/A,,Clear,120,2012-11-18 01:53:00
8:53 PM,53.1,30.0,41,30.30,10.0,ESE,4.6,-,N/A,,Clear,120,2012-11-18 02:53:00
9:53 PM,48.0,30.9,52,30.30,10.0,Calm,Calm,-,N/A,,Clear,0,2012-11-18 03:53:00
10:53 PM,48.9,30.9,50,30.29,10.0,ESE,4.6,-,N/A,,Scattered Clouds,120,2012-11-18 04:53:00
11:53 PM,48.0,32.0,54,30.30,10.0,SE,4.6,-,N/A,,Mostly Cloudy,130,2012-11-18 05:53:00